Location: F?ge?el
(45.8833°N, 22.5833°E)
Time: 05:43:29
(UTC+00:00)

COSMOS 2406 - Pass Details

Date: 17 November 2025
Orbit: 845 x 858 km, 71.0° (Epoch: 04 December)

Event Time Altitude Azimuth Distance (km) Brightness Sun altitude
Rises 16:36:28 0° 337° (NNW) 3,417 6.5 -17.3°
Reaches altitude 10° 16:39:01 10° 343° (NNW) 2,479 5.7 -17.8°
Maximum altitude 16:44:30 47° 57° (ENE) 1,112 3.4 -18.7°
Enters shadow 16:47:01 29° 113° (ESE) 1,506 4.0 -19.1°
